Location: Caltech
(34.1382°N, 118.1253°W)
Time: 11:17:38
(UTC-07:00)

OAO 2 Rocket - Visible Passes

Search period start: 01 October 2014 00:00
Search period end: 11 October 2014 00:00
Orbit: 678 x 749 km, 35.0° (Epoch: 01 October)

Date Brightness Start Highest point End Pass type
(mag) Time Alt. Az. Time Alt. Az. Time Alt. Az.
01 Oct 4.9 20:22:28 10° W 20:26:26 24° SSW 20:27:55 21° S visible
02 Oct 4.5 19:25:03 10° W 19:29:31 35° SSW 19:33:57 10° SE visible
03 Oct 5.7 20:14:14 10° WSW 20:16:45 14° SW 20:19:17 10° S visible
04 Oct 5.4 19:16:12 10° W 19:19:54 21° SSW 19:23:35 10° SSE visible
06 Oct 6.0 19:08:25 10° WSW 19:10:12 12° SW 19:11:57 10° SSW visible
